This is the latest recevied weather packets stored in our database for station/object OK2ILA-10. If no packets are shown the sender has not sent any weather packets the latest 10 day(s).
| Time | Temp. | Humidity | Pressure | Rain* | Wind** | Luminosity | Snow |
|---|---|---|---|---|---|---|---|
| 1777971402 | 22.22° C | 39% | 1011.1 hPa | - | - | - | - |
| 1777970805 | 22.22° C | 38% | 1011.1 hPa | - | - | - | - |
| 1777970802 | 22.22° C | 38% | 1011.1 hPa | - | - | - | - |
| 1777970205 | 24.44° C | 36% | 1011.1 hPa | - | - | - | - |
| 1777970201 | 24.44° C | 36% | 1011.1 hPa | - | - | - | - |
| 1777969605 | 23.33° C | 37% | 1011 hPa | - | - | - | - |
| 1777969601 | 23.33° C | 37% | 1011 hPa | - | - | - | - |
| 1777969005 | 22.78° C | 37% | 1011.2 hPa | - | - | - | - |
| 1777969001 | 22.78° C | 37% | 1011.2 hPa | - | - | - | - |
| 1777968405 | 21.67° C | 38% | 1011.1 hPa | - | - | - | - |
| 1777968401 | 21.67° C | 38% | 1011.1 hPa | - | - | - | - |
| 1777967804 | 22.22° C | 38% | 1011.2 hPa | - | - | - | - |
| 1777967801 | 22.22° C | 38% | 1011.2 hPa | - | - | - | - |
| 1777967204 | 21.67° C | 39% | 1011.2 hPa | - | - | - | - |
| 1777967200 | 21.67° C | 39% | 1011.2 hPa | - | - | - | - |
| 1777966604 | 22.22° C | 38% | 1011.4 hPa | - | - | - | - |
| 1777966600 | 22.22° C | 38% | 1011.4 hPa | - | - | - | - |
| 1777966004 | 22.78° C | 39% | 1011.1 hPa | - | - | - | - |
| 1777966000 | 22.78° C | 39% | 1011.1 hPa | - | - | - | - |
| 1777965404 | 22.22° C | 40% | 1011.3 hPa | - | - | - | - |
| 1777965400 | 22.22° C | 40% | 1011.3 hPa | - | - | - | - |
| 1777964804 | 22.78° C | 40% | 1011.3 hPa | - | - | - | - |
| 1777964800 | 22.78° C | 40% | 1011.3 hPa | - | - | - | - |
| 1777964203 | 22.78° C | 40% | 1011.4 hPa | - | - | - | - |
| 1777964199 | 22.78° C | 40% | 1011.4 hPa | - | - | - | - |
* Rain since midnight (hover to see other rain measurements)
** Current wind speed in m/s (hover to see current wind gust speed)